Location: Donzy-le-Pr�
(47.3659°N, 3.1107°E)
Time: 18:00:18
(UTC+00:00)

USA 307 - Visible Passes

Search period start: 16 June 2021 00:00
Search period end: 26 June 2021 00:00
Orbit: 566 x 577 km, 54.0° (Epoch: 10 May)

Date Brightness Start Highest point End Pass type
(mag) Time Alt. Az. Time Alt. Az. Time Alt. Az.
16 Jun 4.5 02:09:10 14° S 02:11:45 23° SE 02:15:07 10° E visible
17 Jun 3.9 02:10:31 17° S 02:13:08 33° SE 02:16:58 10° ENE visible
18 Jun 3.4 02:11:48 19° SSW 02:14:35 47° SE 02:18:41 10° ENE visible
19 Jun 5.0 00:36:57 13° SE 00:36:57 13° SE 00:38:48 10° E visible
19 Jun 3.0 02:13:01 18° SW 02:16:04 67° SE 02:20:18 10° ENE visible
20 Jun 4.5 00:38:07 20° SE 00:38:07 20° SE 00:41:10 10° E visible
20 Jun 2.9 02:14:11 16° WSW 02:17:36 89° NW 02:21:52 10° ENE visible
21 Jun 4.0 00:39:14 28° SE 00:39:27 28° SE 00:43:06 10° ENE visible
21 Jun 3.1 02:15:18 12° WSW 02:19:10 68° NNW 02:23:25 10° ENE visible
22 Jun 3.4 00:40:16 38° SSE 00:40:51 40° SE 00:44:51 10° ENE visible
22 Jun 3.5 02:16:35 10° W 02:20:46 54° NNW 02:24:56 10° NE visible
23 Jun 3.0 00:41:14 43° SSW 00:42:18 58° SE 00:46:29 10° ENE visible
23 Jun 3.9 02:18:18 10° W 02:22:23 44° NNW 02:26:29 10° NE visible
23 Jun 5.0 23:06:04 14° ESE 23:06:04 14° ESE 23:07:05 10° E visible
24 Jun 2.8 00:42:08 36° SW 00:43:47 80° SSE 00:48:03 10° ENE visible
24 Jun 4.2 02:20:03 10° W 02:24:03 38° NNW 02:28:03 10° ENE visible
24 Jun 4.4 23:06:51 21° ESE 23:06:51 21° ESE 23:09:08 10° E visible
25 Jun 3.0 00:42:54 25° WSW 00:45:19 77° NNW 00:49:35 10° ENE visible
25 Jun 4.5 02:21:49 10° WNW 02:25:44 35° N 02:29:40 10° ENE visible
25 Jun 3.7 23:07:30 33° ESE 23:07:30 33° ESE 23:10:56 10° ENE visible
